Wind_Speed
3 3 3 2 2 2 2 2 2 2 2 2 2 3 4 4 4 4 5 5 5 5 5 5 5 5 4 4 4 4 4 4 4 4 4 4 5 5 6 6 6 7 8
3 3 3 2 2 3 3 3 3 3 3 2 2 1 2 2 2 3 3 3 3 3 3 3 3 3 3 3 3 3 3 3 3 3 4 4 5 5 5 5 6 7 8
3 3 3 3 3 3 4 5 5 5 4 4 3 3 2 1 1 1 1 1 1 1 2 1 1 1 1 1 1 2 2 2 3 3 4 4 5 5 5 5 6 6 7
4 3 3 3 4 5 6 6 6 6 6 5 5 4 3 3 3 2 2 2 2 2 3 3 2 2 2 1 1 1 2 2 3 4 4 4 4 5 5 5 5 6 7
4 4 4 5 6 6 7 8 8 8 8 7 7 6 5 5 5 5 4 4 4 4 4 4 4 4 4 3 3 3 3 4 4 5 5 5 5 6 6 6 6 7 7
6 6 6 6 7 8 9 10 10 10 10 9 8 8 8 7 7 7 6 6 6 6 6 6 6 6 6 6 5 5 5 6 5 6 6 6 6 6 7 7 7 7 8
7 7 8 8 9 10 10 11 11 11 11 11 11 10 10 9 9 8 8 8 7 7 7 7 7 7 8 8 8 8 7 7 7 8 8 8 8 8 8 8 8 8 8
9 9 10 10 11 11 11 12 13 13 13 13 12 12 12 11 11 11 10 10 9 9 9 9 9 9 9 9 9 10 10 10 10 10 11 11 10 10 10 10 10 10 9
12 12 12 13 13 13 13 14 14 14 15 15 15 14 14 13 13 13 12 12 11 11 11 11 11 11 11 11 12 12 12 12 13 13 13 14 13 13 12 12 12 11 11
15 14 14 15 16 16 16 16 17 17 17 17 17 17 17 16 16 16 15 15 14 14 14 13 13 13 14 14 13 13 14 14 15 15 15 16 16 16 15 14 14 14 13
18 18 17 17 18 18 18 18 19 19 20 20 21 20 20 19 19 18 18 18 17 17 17 16 16 16 15 16 16 15 15 16 16 17 17 18 18 18 18 17 17 16 15
20 20 19 20 20 20 20 21 21 22 23 23 24 24 23 23 23 22 21 21 20 20 19 19 19 19 19 19 18 18 18 18 18 19 19 20 21 21 21 20 19 18 18
21 21 21 21 21 21 22 23 24 25 25 26 26 27 27 27 26 26 25 24 23 23 22 22 21 21 21 21 21 20 20 20 19 20 20 21 23 23 23 23 22 21 20
21 21 21 22 22 23 23 24 25 27 27 27 28 29 30 30 29 28 28 28 27 27 26 25 23 24 24 23 21 21 21 21 21 21 21 22 23 25 25 24 24 23 23
23 23 23 24 24 25 25 25 26 26 27 29 29 29 30 31 31 32 30 28 29 29 28 27 26 25 25 25 23 24 24 23 23 23 22 23 24 25 26 27 26 26 25
25 24 25 25 26 26 26 26 27 26 26 28 29 29 29 29 31 33 31 31 30 30 29 29 27 27 26 25 25 25 24 24 23 24 24 25 26 26 26 28 28 28 27
25 25 26 26 26 26 26 26 26 26 26 27 27 28 28 27 27 27 28 30 29 29 30 30 29 28 27 27 27 26 26 25 25 24 25 25 26 28 28 29 30 30 30
26 25 25 25 25 25 25 26 26 25 25 25 25 26 25 27 26 26 25 27 29 28 28 29 30 29 28 27 27 27 27 26 26 26 26 27 27 28 29 30 31 31 32
24 23 23 24 24 24 24 26 26 26 26 25 25 25 25 25 25 25 25 26 27 29 29 29 29 29 29 28 27 27 27 27 27 26 27 28 29 29 29 31 31 32 33
22 21 21 22 23 24 24 25 26 27 26 25 25 26 25 25 25 26 27 28 29 30 30 31 31 31 31 30 30 29 29 28 28 27 27 28 28 28 30 32 33 33 34
18 19 19 20 20 21 23 24 25 24 24 25 26 26 26 27 27 27 29 30 30 31 32 32 33 34 33 32 31 31 31 30 30 29 29 29 29 30 30 32 34 35 34
18 18 18 19 21 22 23 23 23 24 25 26 26 26 27 27 28 28 28 30 31 32 33 34 34 34 34 34 33 33 32 31 31 32 32 31 32 32 32 32 34 35 35
16 17 18 20 20 21 22 23 24 25 26 26 26 27 27 28 29 29 30 31 32 33 33 34 34 35 35 35 34 34 34 34 34 33 34 34 34 34 34 34 34 35 35
16 18 19 20 21 22 23 24 25 26 26 26 27 27 28 29 29 30 30 31 31 32 32 33 34 34 35 35 35 35 36 36 36 35 36 37 36 36 36 36 36 35 36
17 19 21 22 23 23 23 24 25 26 27 27 28 28 29 30 30 31 31 31 31 32 33 33 34 34 35 35 36 36 37 37 37 37 36 37 38 38 38 37 37 37 37
19 21 21 22 22 23 24 24 25 26 27 28 28 29 30 31 31 32 32 32 32 32 33 33 34 35 36 36 37 37 38 38 39 39 39 38 39 39 39 39 38 38 38
Wind_Direction
37 34 37 30 18 3 356 350 348 352 7 39 57 60 65 66 64 63 63 64 65 67 68 65 63 63 68 78 87 95 96 98 101 107 111 116 120 121 122 126 131 133 132
27 20 16 2 340 322 314 311 317 316 320 331 345 11 35 48 51 55 54 56 56 51 49 53 54 54 56 72 90 103 109 115 120 124 125 126 128 130 131 133 137 140 141
12 3 352 335 317 302 299 298 301 306 306 308 306 306 322 338 344 1 24 25 20 12 7 5 11 16 20 39 98 123 136 139 145 151 146 142 141 141 141 144 144 146 149
351 347 336 316 307 298 294 294 294 299 301 302 299 294 294 294 292 296 294 291 289 288 296 300 290 291 290 280 255 223 194 176 175 176 172 166 161 155 154 155 156 157 158
333 333 323 309 300 297 293 293 292 295 297 297 293 285 280 279 278 277 277 276 277 279 282 286 282 278 275 267 257 248 233 213 204 196 192 186 180 174 169 168 167 165 168
321 320 313 305 300 295 291 290 289 290 291 291 287 283 278 276 274 272 270 269 271 273 276 281 282 277 272 265 257 250 244 231 227 212 207 201 196 191 184 180 179 175 174
314 307 303 300 299 295 293 290 286 286 286 284 281 280 279 276 272 268 266 264 267 269 272 273 274 274 272 269 261 254 247 238 233 222 217 212 207 204 198 191 186 182 180
312 306 298 296 296 294 290 286 283 281 282 280 279 277 276 274 270 265 266 266 266 266 268 270 269 268 269 267 263 256 250 246 237 229 223 219 215 211 208 203 197 192 188
308 306 299 295 294 290 287 284 283 280 280 279 278 277 274 272 269 267 268 267 267 267 268 269 271 268 265 264 262 258 253 249 240 233 226 223 220 217 214 211 206 200 197
301 299 297 296 292 289 286 284 280 278 277 277 276 273 272 269 268 266 265 266 267 267 267 269 270 271 267 265 262 259 255 252 244 237 231 225 223 221 219 216 213 209 204
294 295 294 291 289 285 285 282 279 276 275 274 272 271 269 268 266 265 265 266 268 269 268 269 269 270 268 264 261 259 255 251 247 240 235 229 225 223 222 220 218 215 211
290 291 291 287 285 283 282 280 278 277 275 273 271 269 266 267 264 263 264 266 268 269 270 268 268 268 268 265 260 258 255 251 248 242 239 233 228 226 224 223 221 219 216
288 289 287 287 285 283 282 280 278 277 277 276 276 275 269 266 264 261 262 264 266 268 269 269 269 270 268 266 261 258 256 252 250 244 240 236 231 228 227 225 223 222 220
287 288 286 285 284 282 280 279 279 278 278 278 278 276 274 270 266 262 263 264 266 268 267 268 270 273 270 266 263 260 258 252 252 247 243 238 233 230 229 227 225 224 222
285 285 286 284 281 281 281 279 278 279 278 279 278 275 274 272 267 263 262 261 265 267 267 267 270 274 275 268 265 265 260 251 248 247 246 240 235 232 230 228 227 225 224
284 283 284 283 281 280 280 281 283 284 283 283 280 282 278 275 272 266 263 264 266 265 264 264 268 272 273 271 268 265 261 252 247 246 245 242 237 233 232 230 229 227 226
283 284 283 283 283 281 284 283 284 289 289 288 286 283 281 279 276 275 272 268 267 266 264 264 266 269 269 270 269 265 261 254 247 246 245 242 239 235 234 233 230 229 229
281 283 285 284 286 285 286 288 288 290 292 291 291 289 286 284 280 277 276 274 269 266 266 265 264 267 268 269 268 265 261 254 247 246 246 242 240 237 235 234 233 232 230
284 284 286 286 287 289 289 289 290 290 292 290 290 291 288 287 283 279 276 274 272 269 268 268 267 268 267 267 265 262 261 256 250 248 248 244 241 240 238 236 234 233 232
285 284 285 285 288 288 288 290 290 290 290 289 288 289 288 286 286 281 277 274 274 273 270 269 267 266 265 265 265 262 259 255 251 251 247 244 242 242 241 238 235 235 234
287 287 287 290 292 291 291 293 293 294 292 291 289 289 288 286 285 282 279 274 273 272 270 268 266 263 263 263 263 261 257 253 251 251 248 246 244 243 242 238 236 237 236
293 293 295 297 296 295 296 297 297 297 296 295 293 290 288 287 285 283 281 277 275 272 269 267 265 263 262 262 260 259 255 254 252 251 250 248 245 244 243 241 237 237 237
301 301 300 301 298 301 301 301 300 299 297 296 294 292 290 287 285 284 281 279 277 273 269 266 264 263 262 260 258 256 253 253 252 251 251 249 246 244 243 242 240 238 237
309 310 310 310 308 305 303 302 302 301 299 298 296 294 292 290 287 285 282 280 277 275 271 267 265 263 261 259 257 255 253 252 251 251 251 249 247 245 243 242 241 240 237
316 315 314 312 310 308 307 306 305 304 302 300 298 296 294 292 290 287 285 282 278 276 272 268 265 263 261 259 257 256 254 252 251 251 250 249 247 245 244 242 240 239 238
318 317 315 314 312 310 309 308 307 306 304 302 301 299 297 295 292 289 287 284 281 277 274 270 266 264 262 260 258 256 255 253 252 250 249 248 247 246 244 242 240 239 238
Height
5920 5919 5918 5918 5917 5916 5916 5915 5915 5914 5913 5912 5911 5910 5909 5909 5908 5908 5907 5906 5906 5905 5905 5905 5904 5904 5903 5903 5902 5902 5902 5902 5902 5901 5901 5901 5901 5901 5902 5902 5902 5903 5903
5920 5918 5918 5918 5917 5916 5916 5915 5914 5914 5913 5912 5911 5910 5909 5909 5908 5908 5907 5907 5906 5905 5905 5905 5904 5904 5904 5903 5903 5902 5902 5902 5902 5902 5902 5902 5902 5902 5902 5903 5903 5903 5904
5918 5918 5917 5917 5917 5916 5915 5914 5914 5913 5912 5911 5911 5910 5909 5908 5908 5907 5907 5906 5906 5905 5905 5905 5904 5904 5904 5904 5903 5903 5902 5902 5902 5902 5902 5902 5902 5902 5903 5903 5904 5904 5905
5917 5916 5916 5916 5916 5915 5915 5914 5913 5912 5911 5910 5910 5909 5908 5908 5907 5907 5906 5906 5905 5905 5905 5904 5904 5904 5903 5903 5903 5903 5902 5902 5902 5902 5902 5902 5902 5903 5903 5904 5904 5905 5906
5916 5915 5915 5915 5915 5914 5913 5913 5912 5911 5910 5910 5909 5908 5907 5907 5906 5906 5905 5905 5905 5904 5904 5903 5903 5903 5903 5902 5902 5902 5902 5902 5902 5902 5902 5902 5902 5903 5903 5904 5904 5905 5906
5914 5914 5913 5913 5913 5912 5911 5911 5910 5910 5909 5908 5907 5907 5906 5905 5905 5904 5904 5904 5903 5903 5903 5902 5902 5902 5901 5901 5901 5901 5902 5902 5902 5902 5902 5902 5902 5903 5903 5904 5905 5906 5906
5912 5912 5911 5911 5911 5910 5909 5909 5908 5907 5907 5906 5905 5905 5904 5903 5903 5903 5902 5902 5902 5901 5901 5901 5900 5900 5900 5900 5900 5900 5900 5901 5901 5901 5901 5902 5902 5903 5903 5904 5905 5906 5907
5910 5910 5909 5909 5908 5907 5907 5906 5905 5905 5904 5904 5903 5902 5902 5901 5901 5901 5900 5900 5900 5899 5899 5899 5898 5898 5898 5898 5898 5898 5899 5899 5899 5900 5900 5901 5902 5902 5903 5904 5904 5905 5906
5908 5908 5907 5906 5905 5905 5904 5903 5903 5902 5901 5901 5900 5900 5899 5899 5898 5898 5898 5898 5897 5897 5896 5896 5896 5896 5896 5896 5896 5896 5896 5897 5897 5898 5898 5899 5900 5901 5902 5903 5904 5905 5906
5906 5905 5904 5903 5903 5902 5901 5900 5900 5899 5898 5897 5897 5896 5895 5895 5895 5894 5894 5894 5894 5894 5893 5893 5893 5893 5893 5893 5893 5894 5894 5894 5894 5895 5896 5897 5898 5900 5901 5902 5903 5904 5905
5903 5902 5901 5900 5899 5899 5898 5897 5896 5895 5894 5893 5892 5892 5891 5891 5891 5890 5890 5890 5890 5890 5890 5890 5890 5890 5889 5889 5889 5890 5890 5891 5892 5892 5893 5894 5896 5897 5899 5900 5901 5902 5904
5900 5899 5898 5897 5896 5895 5894 5893 5892 5891 5890 5888 5888 5887 5886 5885 5885 5885 5886 5886 5886 5885 5885 5885 5885 5885 5885 5885 5885 5886 5886 5887 5887 5888 5890 5891 5892 5894 5896 5897 5899 5900 5902
5896 5895 5894 5893 5892 5891 5890 5888 5887 5886 5885 5884 5883 5882 5881 5880 5879 5879 5880 5880 5880 5880 5880 5880 5879 5879 5879 5879 5880 5881 5881 5882 5883 5884 5885 5887 5888 5890 5892 5894 5895 5897 5899
5891 5890 5889 5888 5887 5886 5885 5883 5882 5880 5879 5878 5877 5876 5874 5874 5874 5873 5873 5874 5874 5874 5874 5874 5874 5873 5873 5873 5874 5875 5876 5877 5878 5879 5881 5882 5884 5886 5888 5890 5892 5894 5895
5887 5886 5883 5883 5882 5881 5880 5878 5877 5875 5874 5873 5871 5869 5868 5867 5867 5867 5867 5866 5867 5867 5867 5868 5867 5867 5867 5867 5868 5869 5869 5871 5872 5873 5875 5877 5878 5881 5883 5886 5887 5890 5892
5882 5880 5879 5878 5877 5876 5874 5873 5871 5869 5868 5866 5865 5863 5861 5860 5860 5860 5860 5859 5860 5860 5860 5861 5861 5861 5861 5861 5862 5863 5863 5864 5866 5868 5869 5871 5873 5875 5878 5881 5883 5885 5887
5877 5875 5875 5873 5872 5870 5869 5867 5866 5864 5862 5860 5858 5856 5855 5854 5853 5853 5854 5853 5854 5853 5853 5854 5854 5854 5854 5855 5856 5856 5857 5858 5860 5862 5863 5865 5867 5869 5872 5875 5877 5880 5882
5872 5871 5869 5868 5866 5864 5863 5862 5861 5859 5857 5854 5852 5850 5849 5848 5848 5848 5848 5847 5847 5847 5847 5848 5848 5848 5848 5849 5850 5851 5851 5852 5854 5856 5857 5859 5861 5863 5866 5869 5871 5874 5877
5867 5865 5864 5863 5861 5860 5858 5857 5855 5853 5852 5849 5846 5844 5843 5843 5842 5841 5841 5841 5841 5841 5841 5841 5840 5841 5842 5842 5843 5845 5845 5847 5848 5849 5851 5853 5854 5857 5860 5862 5865 5868 5870
5862 5861 5859 5858 5856 5855 5853 5851 5849 5848 5846 5843 5841 5839 5838 5837 5836 5835 5835 5834 5834 5833 5833 5833 5833 5834 5834 5835 5836 5837 5839 5840 5841 5843 5844 5846 5848 5850 5853 5855 5858 5861 5864
5857 5856 5854 5853 5851 5849 5847 5845 5843 5841 5839 5837 5835 5833 5832 5830 5829 5828 5827 5827 5826 5825 5825 5825 5825 5826 5826 5827 5828 5829 5831 5832 5834 5836 5837 5839 5842 5843 5845 5848 5851 5854 5857
5852 5851 5849 5848 5846 5844 5842 5840 5837 5835 5833 5831 5829 5827 5825 5823 5822 5821 5820 5819 5818 5817 5817 5816 5817 5817 5817 5818 5820 5820 5822 5825 5826 5828 5830 5832 5834 5836 5838 5840 5843 5846 5850
5848 5846 5844 5843 5840 5839 5837 5834 5832 5829 5826 5824 5822 5820 5818 5816 5814 5813 5812 5811 5809 5808 5808 5807 5807 5808 5808 5809 5811 5812 5814 5816 5818 5820 5822 5824 5826 5828 5830 5833 5836 5839 5842
5844 5842 5840 5837 5835 5833 5831 5828 5825 5822 5820 5817 5815 5812 5810 5808 5806 5805 5803 5802 5800 5799 5798 5798 5798 5799 5799 5800 5801 5802 5805 5807 5809 5811 5813 5815 5817 5819 5822 5825 5828 5831 5834
5841 5839 5836 5833 5831 5828 5825 5822 5819 5816 5813 5810 5808 5805 5802 5800 5798 5796 5794 5793 5792 5790 5789 5789 5789 5789 5790 5790 5792 5793 5794 5797 5799 5801 5803 5806 5808 5811 5813 5816 5819 5822 5826
5838 5835 5832 5829 5826 5823 5820 5817 5813 5810 5807 5803 5800 5797 5794 5791 5789 5787 5785 5783 5782 5781 5780 5779 5779 5779 5780 5781 5782 5783 5784 5786 5788 5791 5793 5796 5798 5801 5804 5807 5810 5814 5817